Location: Dimsdale
(55.1333°N, 118.9833°W)
Time: 19:43:03
(UTC+00:00)

MOZHAYETS 4 - Pass Details

Date: 13 December 2023
Orbit: 654 x 672 km, 98.3° (Epoch: 01 March)

Event Time Altitude Azimuth Distance (km) Brightness Sun altitude
Exits shadow 02:34:38 - 1° (N) 2,842 10.9 -25.1°
Reaches altitude 10° 02:38:36 10° 322° (NW) 2,120 10.7 -25.7°
Maximum altitude 02:39:03 10° 316° (NW) 2,110 10.7 -25.7°
Drops below altitude 10° 02:39:31 10° 311° (NW) 2,119 10.8 -25.8°
Sets 02:44:08 0° 268° (W) 3,027 12.4 -26.5°
